Weather History for Fort Polk, LA

Change the Weather History Date:

Wednesday, November 14, 2012

  Actual Average (KPOE) Record (KPOE)
Temperature  
Mean Temperature 48 °F -  
Max Temperature 61 °F 66 °F 80 °F (1999)
Min Temperature 34 °F 47 °F 27 °F (2014)
Degree Days  
Heating Degree Days 18    
Moisture  
Dew Point 32 °F    
Average Humidity 67    
Maximum Humidity 93    
Minimum Humidity 28    
Precipitation  
Precipitation 0.00 in - - ()
Sea Level Pressure  
Sea Level Pressure 30.34 in    
Wind  
Wind Speed 2 mph (NNE)    
Max Wind Speed 10 mph    
Max Gust Speed -    
Visibility 10 miles    
Events      
Averages and records for this station are not official NWS values.
T = Trace of Precipitation, MM = Missing Value Source: NWS Daily Summary

Daily Weather History Graph

Daily Weather History Graph

Search for Another Location

Airport:

Trip Planner

Search our weather history database for the weather conditions in past years. The results will help you decide how hot, cold, wet, or windy it might be!

Date:

Astronomy

Nov. 14, 2012 Rise Set
Actual Time 6:40 AM CST 5:14 PM CST
Civil Twilight 6:14 AM CST 5:40 PM CST
Nautical Twilight 5:45 AM CST 6:09 PM CST
Astronomical Twilight 5:16 AM CST 6:38 PM CST
Moon 7:26 AM CST (11/14) 6:07 PM CST (11/14)
Length of Visible Light 11h 25m
Length of Day
10h 34m
New Moon, 1% of the Moon is Illuminated
Nov 14
New Moon
Nov 20
First Quarter
Nov 28
Full
Dec 6
Last Quarter
Dec 13
New

Hourly Weather History & Observations

Time (CST) Temp. Windchill Dew Point Humidity Pressure Visibility Wind Dir Wind Speed Gust Speed Precip Events Conditions
12:56 AM 42.1 °F - 32.0 °F 67% 30.35 in 10.0 mi Calm Calm - N/A   Clear
1:56 AM 37.0 °F - 33.1 °F 86% 30.38 in 10.0 mi Calm Calm - N/A   Clear
2:56 AM 35.1 °F - 33.1 °F 92% 30.37 in 10.0 mi Calm Calm - N/A   Clear
3:56 AM 34.0 °F - 32.0 °F 92% 30.36 in 10.0 mi Calm Calm - N/A   Clear
4:56 AM 39.0 °F - 35.1 °F 86% 30.35 in 10.0 mi Calm Calm - N/A   Overcast
5:56 AM 39.0 °F 35.7 °F 34.0 °F 82% 30.37 in 10.0 mi North 4.6 mph - N/A   Overcast
6:56 AM 37.0 °F - 33.1 °F 86% 30.38 in 10.0 mi Calm Calm - N/A   Partly Cloudy
7:56 AM 42.1 °F 40.2 °F 34.0 °F 73% 30.40 in 10.0 mi North 3.5 mph - N/A   Mostly Cloudy
8:56 AM 46.9 °F - 32.0 °F 56% 30.39 in 10.0 mi Variable 3.5 mph - N/A   Clear
9:56 AM 52.0 °F - 30.0 °F 43% 30.39 in 10.0 mi ENE 3.5 mph - N/A   Clear
10:56 AM 55.0 °F - 30.9 °F 40% 30.38 in 10.0 mi Variable 4.6 mph - N/A   Clear
11:56 AM 57.9 °F - 28.9 °F 33% 30.35 in 10.0 mi Variable 5.8 mph - N/A   Clear
12:56 PM 59.0 °F - 28.0 °F 31% 30.32 in 10.0 mi Variable 4.6 mph - N/A   Clear
1:56 PM 61.0 °F - 28.9 °F 30% 30.30 in 10.0 mi Variable 5.8 mph - N/A   Clear
2:56 PM 60.1 °F - 27.0 °F 28% 30.29 in 10.0 mi NNE 10.4 mph - N/A   Clear
3:56 PM 59.0 °F - 28.9 °F 32% 30.28 in 10.0 mi North 9.2 mph - N/A   Clear
4:56 PM 55.0 °F - 30.9 °F 40% 30.29 in 10.0 mi Calm Calm - N/A   Clear
5:56 PM 46.0 °F - 37.0 °F 71% 30.30 in 5.0 mi Calm Calm - N/A   Haze
6:56 PM 43.0 °F - 36.0 °F 76% 30.30 in 10.0 mi Calm Calm - N/A   Clear
7:56 PM 39.9 °F - 36.0 °F 86% 30.31 in 9.0 mi Calm Calm - N/A   Clear
8:56 PM 37.9 °F - 35.1 °F 89% 30.32 in 10.0 mi Calm Calm - N/A   Clear
9:56 PM 36.0 °F - 34.0 °F 93% 30.32 in 9.0 mi Calm Calm - N/A   Clear
10:56 PM 35.1 °F - 33.1 °F 92% 30.31 in 10.0 mi Calm Calm - N/A   Clear
11:56 PM 34.0 °F - 32.0 °F 92% 30.31 in 10.0 mi Calm Calm - N/A   Clear